Stations météo

Publicité
Muret-Lherm, France (7628): Température de l'air & dewpoint: 19.11.2020 23:00:00 - 25.11.2020 23:00:00 (CET)Muret-Lherm, France (7628): Vitesse du vent & gusts: 19.11.2020 23:00:00 - 25.11.2020 23:00:00 (CET)Muret-Lherm, France (7628): Direction du vent: 19.11.2020 23:00:00 - 25.11.2020 23:00:00 (CET)Muret-Lherm, France (7628): reduced air pressure: 19.11.2020 23:00:00 - 25.11.2020 23:00:00 (CET)Muret-Lherm, France (7628): visibility: 19.11.2020 23:00:00 - 25.11.2020 23:00:00 (CET)Muret-Lherm, France (7628): Quantités de précipitations: 19.11.2020 23:00:00 - 25.11.2020 23:00:00 (CET)
Date & Time tt [°C] td [°C] ff [km/h] ff [knt] fx [km/h] fx [knt] dd ppp [hPa] vv [km] rr [mm]
25.11.2020 23:00:00 10,4 9,5 5 3 15 8 SSE 1015,3 20 0,0
25.11.2020 22:00:00 10,6 9,7 8 4 15 8 SSE 1014,9 20 -
25.11.2020 21:00:00 11,5 9,6 5 3 34 18 SSW 1014,7 20 0,0
25.11.2020 20:00:00 12,5 10,4 15 8 26 14 ESE 1014,3 20 0,0
25.11.2020 19:00:00 12,6 10,3 12 6 30 16 SE 1014,2 20 0,0
25.11.2020 18:00:00 13,5 10,5 15 8 37 20 ESE 1013,6 20 0,0
25.11.2020 17:00:00 14,7 10,7 16 9 34 18 ESE 1013,2 20 0,0
25.11.2020 16:00:00 16,1 10,2 18 10 37 20 ESE 1013,0 20 -
25.11.2020 15:00:00 16,5 10,3 23 13 42 23 ESE 1013,0 15 0,0
25.11.2020 14:00:00 17,1 10,5 20 11 35 19 SE 1013,1 18 0,0
25.11.2020 13:00:00 16,3 10,4 13 7 26 14 SE 1013,8 20 0,0
25.11.2020 12:00:00 14,3 10,1 13 7 18 10 SE 1014,8 20 0,0
25.11.2020 11:00:00 8,4 6,7 3 2 6 3 SSE 1015,9 16 0,0
25.11.2020 10:00:00 3,7 3,6 4 2 5 3 SW 1016,7 3,2 0,0
25.11.2020 09:00:00 0,7 0,7 2 1 5 3 SSW 1016,7 0,4 0,0
25.11.2020 08:00:00 -0,1 -0,2 4 2 8 5 SSW 1016,8 0,2 0,0
25.11.2020 07:00:00 0,6 0,2 4 2 6 3 S 1016,6 0,8 0,0
25.11.2020 06:00:00 2,7 1,5 2 1 19 10 S 1016,6 3,1 0,0
25.11.2020 05:00:00 7,2 6,8 10 5 18 10 SE 1016,3 7 0,2
25.11.2020 04:00:00 8,4 7,3 15 8 29 15 SE 1016,5 9 0,0
25.11.2020 03:00:00 8,6 7,7 17 9 25 14 SE 1016,8 10 0,0
25.11.2020 02:00:00 8,1 7,2 13 7 21 11 SE 1017,2 13 0,0
25.11.2020 01:00:00 8,0 7,4 9 5 20 11 SSE 1018,0 13 0,0
25.11.2020 00:00:00 8,6 7,4 12 6 23 12 SSE 1018,3 16 0,0
24.11.2020 23:00:00 8,4 7,5 10 6 19 10 SSE 1018,8 16 0,0
24.11.2020 22:00:00 9,0 7,6 14 7 22 12 SE 1019,2 16 0,0
24.11.2020 21:00:00 9,0 7,6 11 6 26 14 SE 1019,5 18 0,0
24.11.2020 20:00:00 9,1 7,5 11 6 23 12 SE 1019,7 19 0,0
24.11.2020 19:00:00 9,4 7,5 14 7 21 11 SE 1019,8 19 0,0
24.11.2020 18:00:00 10,1 7,5 14 8 30 16 SE 1019,9 20 0,0
24.11.2020 17:00:00 11,1 7,6 19 10 35 19 ESE 1019,5 20 0,0
24.11.2020 16:00:00 11,9 7,2 19 10 30 16 ESE 1019,2 20 0,0
24.11.2020 15:00:00 13,4 7,6 15 8 34 19 ESE 1019,2 20 0,0
24.11.2020 14:00:00 13,6 7,8 17 9 35 19 ESE 1019,6 20 0,0
24.11.2020 13:00:00 13,2 6,5 19 10 40 22 ESE 1019,9 20 0,0
24.11.2020 12:00:00 12,2 5,8 25 14 48 26 ESE 1021,1 20 0,0
24.11.2020 11:00:00 11,0 4,2 28 15 44 24 ESE 1022,0 20 0,0
24.11.2020 10:00:00 8,8 4,0 22 12 35 19 ESE 1022,3 - 0,2
24.11.2020 09:00:00 0,4 0,4 3 2 7 4 NW 1023,6 7 0,0
24.11.2020 08:00:00 -1,0 -1,0 2 1 9 5 W 1023,8 1,8 0,0
24.11.2020 07:00:00 -0,8 -0,9 0 0 3 1 N 1024,2 0,2 0,0
24.11.2020 06:00:00 -1,0 -1,1 0 0 4 2 N 1024,5 0,4 0,0
24.11.2020 05:00:00 -0,4 -0,4 3 1 6 3 SE 1024,9 0,3 0,0
24.11.2020 04:00:00 -0,4 -0,5 4 2 5 3 SW 1025,6 0,1 0,0
24.11.2020 03:00:00 0,4 0,3 0 0 2 1 N 1026,1 2,5 0,0
24.11.2020 02:00:00 0,8 0,5 4 2 7 4 SSW 1026,8 4,2 0,0
24.11.2020 01:00:00 1,2 0,8 4 2 6 3 SW 1027,5 0,8 0,0
24.11.2020 00:00:00 2,0 1,6 5 3 9 5 SSW 1027,9 4,7 0,0
23.11.2020 23:00:00 2,5 2,1 6 4 8 4 S 1028,3 5 0,0
23.11.2020 22:00:00 2,3 1,7 4 2 8 4 WSW 1028,5 8 -
23.11.2020 21:00:00 3,4 2,7 2 1 5 3 W 1028,7 18 0,0
23.11.2020 20:00:00 4,3 3,3 0 0 5 3 N 1028,8 16 0,0
23.11.2020 19:00:00 5,2 3,5 3 1 4 2 NNW 1028,8 19 0,0
23.11.2020 18:00:00 7,6 4,4 0 0 2 1 N 1028,4 20 0,0
23.11.2020 17:00:00 11,8 5,4 0 0 6 3 N 1027,8 20 0,0
23.11.2020 16:00:00 12,9 5,6 4 2 9 5 N 1028,0 20 -
23.11.2020 15:00:00 12,5 5,9 6 3 14 7 N 1028,3 19 0,0
23.11.2020 14:00:00 12,4 6,4 0 0 8 5 N 1028,7 17 0,0
23.11.2020 13:00:00 11,1 6,2 3 1 8 5 N 1029,4 20 0,0
23.11.2020 12:00:00 9,5 6,6 5 3 10 5 S 1030,0 13 0,0
23.11.2020 11:00:00 6,6 4,3 8 4 11 6 S 1030,6 20 0,0
23.11.2020 10:00:00 2,7 2,1 8 4 11 6 S 1030,9 20 -
23.11.2020 09:00:00 -0,3 -0,6 8 5 11 6 S 1031,1 15 0,0
23.11.2020 08:00:00 -1,7 -2,0 5 3 9 5 S 1030,4 17 0,0
23.11.2020 07:00:00 -1,5 -1,9 5 3 8 4 S 1030,3 16 0,0
23.11.2020 06:00:00 -1,1 -1,4 7 4 9 5 S 1030,2 15 0,0
23.11.2020 05:00:00 -1,5 -1,9 5 3 12 6 SW 1030,5 15 0,0
23.11.2020 04:00:00 -0,9 -1,0 7 4 10 5 S 1030,6 13 0,0
23.11.2020 03:00:00 -1,1 -1,5 3 2 8 4 SSW 1030,4 14 0,0
23.11.2020 02:00:00 -0,2 -0,5 5 3 9 5 SSW 1030,2 4,3 0,0
23.11.2020 01:00:00 0,1 -0,2 7 4 9 5 S 1030,2 5 0,0
23.11.2020 00:00:00 0,8 0,5 7 4 11 6 SSW 1029,7 6 0,0
22.11.2020 23:00:00 0,6 0,2 4 2 5 3 S 1029,9 7 0,0
22.11.2020 22:00:00 1,1 0,2 3 2 6 3 SSW 1029,7 13 0,0
22.11.2020 21:00:00 2,1 1,4 3 1 5 3 SSW 1029,4 19 0,0
22.11.2020 20:00:00 3,1 2,1 4 2 6 3 NW 1029,1 20 0,0
22.11.2020 19:00:00 4,6 2,5 2 1 4 2 NNW 1028,3 20 0,0
22.11.2020 18:00:00 7,2 3,2 3 2 4 2 N 1027,7 20 0,0
22.11.2020 17:00:00 11,4 3,9 3 1 6 4 NE 1026,9 20 0,0
22.11.2020 16:00:00 13,6 3,4 2 1 9 5 E 1026,4 20 -
22.11.2020 15:00:00 13,3 4,2 6 3 13 7 E 1026,5 20 0,0
22.11.2020 14:00:00 12,5 4,9 9 5 16 9 ENE 1026,8 20 0,0
22.11.2020 13:00:00 11,1 4,1 9 5 18 10 ENE 1027,6 20 0,0
22.11.2020 12:00:00 9,2 4,6 7 4 15 8 E 1028,3 20 0,0
22.11.2020 11:00:00 5,3 3,0 0 0 5 3 N 1029,1 20 0,2
22.11.2020 10:00:00 1,8 1,8 0 0 6 3 N 1029,8 6 0,0
22.11.2020 09:00:00 -1,5 -1,6 5 3 6 3 SSW 1029,8 2,9 0,0
22.11.2020 08:00:00 -3,1 -3,4 0 0 4 2 N 1029,8 2,5 0,0
22.11.2020 07:00:00 -3,1 -3,5 0 0 9 5 N 1029,7 2,5 0,0
22.11.2020 06:00:00 -2,8 -2,9 5 3 8 4 NNW 1029,6 2,8 0,0
22.11.2020 05:00:00 -2,6 -2,7 4 2 5 3 N 1029,3 1,6 0,0
22.11.2020 04:00:00 -2,4 -2,5 4 2 6 3 S 1029,7 2,3 0,0
22.11.2020 03:00:00 -1,8 -1,8 5 3 7 4 SSW 1029,9 0,7 0,0
22.11.2020 02:00:00 -1,1 -1,1 4 2 6 3 SW 1030,5 - 0,0
22.11.2020 01:00:00 -1,5 -1,5 6 3 9 5 SE 1030,5 0,1 0,0
22.11.2020 00:00:00 -1,4 -1,5 5 3 6 3 SW 1030,7 0,1 0,0
21.11.2020 23:00:00 -0,9 -1,3 0 0 2 1 N 1030,9 4,3 0,0
21.11.2020 22:00:00 -0,3 -0,7 4 2 6 4 WNW 1031,0 1,3 0,0
21.11.2020 21:00:00 1,2 0,8 2 1 5 3 SSW 1031,1 3,2 0,0
21.11.2020 20:00:00 2,5 1,9 4 2 8 4 NNW 1031,2 5 0,0
21.11.2020 19:00:00 3,9 2,9 6 4 10 6 N 1031,0 11 0,0
21.11.2020 18:00:00 5,7 3,5 10 5 16 9 N 1030,3 19 0,0
21.11.2020 17:00:00 8,9 2,5 5 3 8 5 NNE 1029,8 20 0,0
21.11.2020 16:00:00 10,1 2,4 5 3 11 6 NNE 1029,7 20 -
21.11.2020 15:00:00 10,6 3,4 3 2 9 5 E 1030,0 20 0,0
21.11.2020 14:00:00 10,6 3,8 4 2 11 6 SE 1030,6 20 0,0
21.11.2020 13:00:00 8,7 3,5 4 2 10 5 ENE 1031,9 20 0,0
21.11.2020 12:00:00 8,0 3,6 0 0 8 4 N 1032,8 20 0,0
21.11.2020 11:00:00 5,6 3,1 5 3 9 5 N 1033,7 20 0,0
21.11.2020 10:00:00 2,6 1,6 7 4 13 7 SSW 1034,1 15 0,2
21.11.2020 09:00:00 0,2 0,1 3 2 9 5 S 1034,1 7 0,0
21.11.2020 08:00:00 -1,6 -1,9 5 3 8 4 S 1033,7 18 0,0
21.11.2020 07:00:00 -1,0 -1,3 8 5 11 6 S 1033,3 20 0,0
21.11.2020 06:00:00 -0,4 -0,7 11 6 16 9 SSW 1033,3 20 0,0
21.11.2020 05:00:00 -0,7 -1,1 6 4 14 7 SSW 1033,6 20 0,0
21.11.2020 04:00:00 -0,3 -0,7 4 2 11 6 S 1034,2 20 -
21.11.2020 03:00:00 0,2 -0,4 4 2 13 7 SSW 1034,7 20 0,0
21.11.2020 02:00:00 0,9 0,5 10 6 14 8 S 1035,0 20 0,0
21.11.2020 01:00:00 1,2 0,5 5 3 13 7 WSW 1035,2 20 0,0
21.11.2020 00:00:00 1,8 0,3 3 1 10 5 SSW 1035,7 20 0,0
20.11.2020 23:00:00 2,5 1,3 9 5 11 6 WSW 1035,7 20 0,0
20.11.2020 22:00:00 3,2 1,6 6 4 19 10 W 1035,5 20 0,0
20.11.2020 21:00:00 4,4 2,1 7 4 19 11 SSW 1035,3 20 0,0
20.11.2020 20:00:00 5,9 2,7 12 7 17 9 NNW 1035,3 20 0,0
20.11.2020 19:00:00 6,4 2,7 13 7 16 9 NW 1035,2 20 0,0
20.11.2020 18:00:00 7,4 2,9 13 7 19 10 NW 1035,2 20 0,0
20.11.2020 17:00:00 10,0 2,8 14 8 26 14 NW 1034,9 20 0,0
20.11.2020 16:00:00 10,8 2,4 18 10 28 15 NW 1035,0 20 -
20.11.2020 15:00:00 11,5 2,8 17 9 29 16 NW 1034,9 20 0,0
20.11.2020 14:00:00 11,3 3,1 14 7 24 13 NW 1035,3 20 0,0
20.11.2020 13:00:00 10,8 3,3 16 9 34 19 WNW 1036,1 20 0,0
20.11.2020 12:00:00 10,8 3,8 21 12 34 18 NW 1036,7 20 0,0
20.11.2020 11:00:00 9,7 4,5 18 10 26 14 NW 1036,7 20 0,0
20.11.2020 10:00:00 8,1 5,6 13 7 18 10 WNW 1037,2 20 -
20.11.2020 09:00:00 6,7 5,5 8 4 13 7 W 1037,6 20 0,0
20.11.2020 08:00:00 6,6 5,1 7 4 14 8 WNW 1037,1 20 0,0
20.11.2020 07:00:00 7,0 5,5 10 6 19 10 NW 1037,0 20 0,0
20.11.2020 06:00:00 6,6 5,7 11 6 15 8 NW 1036,5 20 0,0
20.11.2020 05:00:00 6,2 5,2 9 5 17 9 WNW 1036,4 20 0,0
20.11.2020 04:00:00 5,4 5,1 10 6 14 8 W 1036,7 20 0,0
20.11.2020 03:00:00 5,7 5,4 12 6 15 8 WSW 1036,9 20 0,0
20.11.2020 02:00:00 6,6 6,5 7 4 12 7 WNW 1037,4 19 0,0
20.11.2020 01:00:00 6,1 5,8 9 5 16 9 W 1037,7 16 0,0
20.11.2020 00:00:00 6,3 6,0 12 6 16 8 W 1037,6 18 0,0
19.11.2020 23:00:00 6,4 5,7 8 4 12 7 W 1038,0 19 0,0

tt = Température de l'air
td = dewpoint
ff = Vitesse du vent
fx = gusts
dd = Direction du vent
ppp = reduced air pressure
vv = visibility
rr = Quantités de précipitations

stations d'obs. à proximité